This demonstration page uses our WeatherBlox Daily Observations layout. Learn more.

Left ArrowRight Arrow

41.55636, -103.73856

Hourly Observations for July 31, 2017

Temp ( °F °C ) Dew Point ( °F °C ) Humidity (%) Winds ( mph kmh ) Pressure ( in mb ) Visibility ( mi km ) Precip ( " mm )
12:53 am 00:53 Clear 66 18.9 61 16.1 84 84 SE 13 20 30.08 1019 10 16 0.00 0.00
1:53 am 01:53 Clear 65 18.3 60 15.6 84 84 ESE 9 15 30.06 1018 10 16 0.00 0.00
2:53 am 02:53 Clear 63 17.2 60 15.6 90 90 E 5 7 30.06 1018 10 16 0.00 0.00
3:53 am 03:53 Clear 62 16.7 59 15 90 90 ENE 5 7 30.05 1018 10 16 0.00 0.00
4:53 am 04:53 Clear 60 15.6 58 14.4 93 93 NNW 3 6 30.05 1018 10 16 0.00 0.00
5:53 am 05:53 Sunny 60 15.6 57 13.9 90 90 N 5 7 30.06 1018 9 14 0.00 0.00
6:53 am 06:53 Sunny 62 16.7 59 15 90 90 WNW 7 11 30.06 1018 7 11 0.00 0.00
7:47 am 07:47 Partly Cloudy with Mist and Fog 63 17 61 16 94 94 WNW 9 15 30.06 1018 2 3 0.00 0.00
7:50 am 07:50 Mostly Cloudy with Mist and Fog 63 17 61 16 94 94 WNW 9 15 30.06 1018 1 2 0.00 0.00
7:53 am 07:53 Mostly Cloudy with Mist and Fog 62 16.7 60 15.6 93 93 WNW 9 15 30.09 1019 1 1 0.00 0.00
8:05 am 08:05 Mostly Cloudy with Mist and Fog 65 18.3 61 16.1 87 87 NW 10 17 30.03 1017 3 4 0.00 0.00
8:09 am 08:09 Cloudy with Mist and Fog 65 18.3 61 16.1 87 87 WNW 10 17 30.03 1017 6 10 0.00 0.00
8:24 am 08:24 Cloudy with Mist and Fog 64 18 61 16 88 88 WNW 9 15 30.03 1017 3 4 0.00 0.00
8:31 am 08:31 Cloudy with Mist and Fog 66 18.9 62 16.7 87 87 WNW 9 15 30.03 1017 5 8 0.00 0.00
8:53 am 08:53 Mostly Cloudy 69 20.6 62 16.7 78 78 W 10 17 30.10 1019 9 14 0.00 0.00
9:01 am 09:01 Partly Cloudy 70 21.1 62 16.7 76 76 W 7 11 30.00 1016 9 14 0.00 0.00
9:53 am 09:53 Sunny 74 23.3 63 17.2 69 69 VRB 7 11 30.09 1019 10 16 0.00 0.00
10:53 am 10:53 Sunny 80 26.7 64 17.8 58 58 W 7 11 30.09 1019 10 16 0.00 0.00
11:53 am 11:53 Mostly Sunny 86 30 63 17.2 46 46 WNW 7 11 30.07 1018 10 16 0.00 0.00
12:53 pm 12:53 Mostly Cloudy 85 29.4 60 15.6 43 43 ESE 9 15 30.06 1018 10 16 0.00 0.00
1:53 pm 13:53 Sunny 89 31.7 56 13.3 33 33 VRB 5 7 30.04 1017 10 16 0.00 0.00
2:53 pm 14:53 Mostly Cloudy 89 31.7 54 12.2 30 30 VRB 5 7 30.04 1017 10 16 0.00 0.00
3:53 pm 15:53 Partly Cloudy 88 31.1 48 8.9 25 25 VRB 5 7 30.03 1017 10 16 0.00 0.00
4:53 pm 16:53 Sunny 93 33.9 48 8.9 21 21 NE 7 11 30.02 1017 10 16 0.00 0.00
5:53 pm 17:53 Sunny 90 32.2 48 8.9 24 24 NE 7 11 30.02 1017 10 16 0.00 0.00
6:53 pm 18:53 Sunny 87 30.6 49 9.4 27 27 ENE 7 11 30.03 1017 10 16 0.00 0.00
7:53 pm 19:53 Sunny 76 24.4 57 13.9 52 52 NE 7 11 30.06 1018 10 16 0.00 0.00
8:53 pm 20:53 Clear 70 21.1 53 11.7 55 55 NNE 8 13 30.07 1018 10 16 0.00 0.00
9:53 pm 21:53 Clear 69 20.6 56 13.3 63 63 NE 5 7 30.09 1019 10 16 0.00 0.00
10:53 pm 22:53 Clear 66 18.9 56 13.3 70 70 NNW 5 7 30.11 1020 10 16 0.00 0.00
11:53 pm 23:53 Clear 63 17.2 56 13.3 78 78 N 3 6 30.10 1019 10 16 0.00 0.00

Powered by AerisWeather